Regional Weather Roundup
Issued by NWS Green Bay, WI

Home | Current Version | Previous Version | Graphics & Text | Print | Product List | Glossary Off
Versions: 1 2 3 4 5 6 7 8 9 10 11 12 13 14 15 16 17 18 19 20 21 22 23 24 25 26 27 28 29 30 31 32 33 34 35 36 37 38 39 40 41 42 43 44 45 46 47 48 49 50

000
ASUS43 KGRB 270459
RWRGRB

NORTH-CENTRAL AND NORTHEAST WISCONSIN REGIONAL WEATHER ROUNDUP
NATIONAL WEATHER SERVICE GREEN BAY WI
1100 PM CST WED NOV 26 2014

WIZ005-009-010>012-018-019-270600-
NORTH CENTRAL WISCONSIN

CITY           SKY/WX    TMP DP  RH WIND       PRES   REMARKS
IRONWOOD       CLOUDY    16  14  93 N8        30.23R WCI   5
MANITOWISH WTR NOT AVBL
ARBOR VITAE    NOT AVBL
EAGLE RIVER    NOT AVBL
LAND O LAKES   NOT AVBL
RHINELANDER    CLOUDY    17  13  84 N7        30.17R WCI   8
PHILLIPS       NOT AVBL
ANTIGO         NOT AVBL
TOMAHAWK       NOT AVBL
MERRILL        NOT AVBL
$$

WIZ013-073-270600-
NORTHEAST WISCONSIN

CITY           SKY/WX    TMP DP  RH WIND       PRES   REMARKS
IRON MOUNTAIN  CLOUDY    21  16  81 NW9       30.15R
MARINETTE      CLOUDY    21  18  86 NW5       30.17R
$$

WIZ017-030-035>037-045-270600-
CENTRAL WISCONSIN

CITY           SKY/WX    TMP DP  RH WIND       PRES   REMARKS
MEDFORD        NOT AVBL
WAUSAU         CLOUDY    21  15  78 NW8       30.18R
MOSINEE        NOT AVBL
MARSHFIELD     CLOUDY    21  15  78 N16       30.21R WCI   7
WISC RAPIDS    CLOUDY    22  18  85 NW8       30.23R
STEVENS POINT  NOT AVBL
WAUPACA        NOT AVBL
SHAWANO        NOT AVBL
CLINTONVILLE   NOT AVBL
$$

WIZ038-039-048-051-270600-
FOX VALLEY

CITY           SKY/WX    TMP DP  RH WIND       PRES   REMARKS
NWS GREEN BAY  LGT SNOW  22  19  89 W6        30.19R FOG
APPLETON       LGT SNOW  19  19 100 W8        30.18R WCI   9
OSHKOSH        MOCLDY    19  16  88 MISG      30.19R FOG
FOND DU LAC    LGT SNOW  18  15  88 CALM      30.20R FOG
$$

WIZ022-050-052-270600-
EAST CENTRAL WISCONSIN

CITY           SKY/WX    TMP DP  RH WIND       PRES   REMARKS
STURGEON BAY   CLOUDY    25  19  80 NW10      30.16S
MANITOWOC      NOT AVBL
SHEBOYGAN      PTCLDY    19  16  88 W7        30.18S FOG     WCI  10
$$

LMZ563-521-522-541>543-270600-
LAKESHORE

STATION/POSITION TIME  TEMP    WIND        PRES    VSBY  WAVE
                       AIR SEA DIR/SP/G                  HT/PER
                 (UTC) (F)     (DEG/KT/KT) (MB)    (MI)  (FT/S)
SHEBOYGAN LKSHOR 0400   21 36  280/  8/  9 1023.3S
KEWAUNEE LKSHORE 0400   21     300/  4/  6 1020.9R
TWO RIVERS CG    0400   18                 1022.2
NORTHPORT PIER   0400   27     320/ 10/ 15 1021.0S
N MID LAKE BUOY  0400   28 42  320/ 12/ 16 1021.4S         1/ 3
CHAMBERS ISLAND  0400   26     300/ 10/ 14 1021.3S
MENOMINEE LKSHOR 0400   23     290/  7/  9 1022.1R
$$



USA.gov is the U.S. government's official web portal to all federal, state and local government web resources and services.